Location: *
(32.8667°N, 13.1833°E)
Time: 22:45:22
(UTC+00:00)

SL-4 R/B - Pass Details

Date: 18 July 2019
Orbit: 428 x 667 km, 51.6° (Epoch: 20 August)

Event Time Altitude Azimuth Distance (km) Brightness Sun altitude
Rises 20:39:40 0° 243° (WSW) 2,972 5.9 -24.8°
Reaches altitude 10° 20:42:06 10° 250° (WSW) 2,076 5.2 -25.2°
Maximum altitude 20:46:40 42° 322° (NW) 950 3.6 -25.8°
Drops below altitude 10° 20:51:15 10° 33° (NNE) 2,074 5.1 -26.4°
Sets 20:53:41 0° 40° (NE) 2,969 5.9 -26.7°
